User: anonymous   Login
Location: Unspecified
(0.0000°N, 0.0000°E)
Time: 18:51:40
(UTC+00:00)
Language:

DOVE 2 - Orbit

View from above orbital plane
View from above orbital plane
View from above satellite
View from above satellite

Ground track
Ground track

The orbit data is extracted from the following two-line orbital elements,

1 39132U 13015C   17145.87106646 +.00000578 +00000-0 +50584-4 0  9990
2 39132 064.8795 347.0823 0036311 283.7939 075.9145 15.06549086225139
Epoch (UTC): 25 May 2017 20:54:20
Eccentricity: 0.0036311
inclination: 64.8795°
perigee height: 521 km
apogee height: 572 km
right ascension of ascending node: 347.0823°
argument of perigee: 283.7939°
revolutions per day: 15.06549086
mean anomaly at epoch: 75.9145°
orbit number at epoch: 22513

The dashed part of the orbit path shows where the satellite is in the earth's shadow,  

DLR